Volver al catálogo

STARLINK-2639

ActivoComunicacionesVLEO
NORAD 48436·PAYLOAD·🇺🇸 United States

Lanzado May 9, 2021 desde Cape Canaveral Space Force Station

Loading…

Próximos Pases (próximas 24 horas)

TLE

ActualizadoSource: CelesTrak SupGP

Época: Sep 14, 2026, 14:02 UTC

1 48436C 21040J   26257.58520833 -.00013454  00000+0 -43276-3 0  2578
2 48436  53.1613  19.0736 0001356  87.7734 166.8517 15.31700402    11

Sigue STARLINK-2639 en tiempo real con AllMySat

Download on the App Store